Preview of NWS' New Version of Forecast
This preview is not operational and should not be used for support decisions.

Regional Weather Roundup (RWR)

Issued by National Weather Service (NWS)

                            
000
ASUS45 KBOU 191410
RWRCO 

WEATHER ROUNDUP FOR COLORADO
NATIONAL WEATHER SERVICE DENVER/BOULDER CO
700 AM MST TUE FEB 19 2019

NOTE: "FAIR" INDICATES FEW OR NO CLOUDS BELOW 12000 FEET WITH NO
SIGNIFICANT WEATHER AND/OR OBSTRUCTIONS TO VISIBILITY.

COZ001>005-013-030-031-191500-
...NORTHWEST COLORADO...
  
CITY           SKY/WX    TMP DP  RH WIND       PRES   REMARKS
CRAIG          CLOUDY    -2  -5  87 SW6       29.87R WCI -14          
HAYDEN         FLURRIES   1  -2  87 W7        29.85R WCI -12          
MEEKER         FLURRIES   8   3  80 CALM      29.83S                  
RANGELY        CLOUDY    13   6  73 E9        29.90S WCI   1          
RABBIT EARS PA LGT SNOW   3   1  92 W8        29.60F WCI -10          
STEAMBOAT SPGS CLOUDY     6   3  89 CALM      29.81R                  
WALDEN         CLOUDY     3  -2  78 N10       29.70F WCI -12          
$$

COZ006>008-011-191500-
...WEST CENTRAL VALLEYS...
  
CITY           SKY/WX    TMP DP  RH WIND       PRES   REMARKS
GRAND JUNCTION CLOUDY    23  19  85 W3        29.84S                  
MONTROSE       CLOUDY    21  18  88 N5        29.81S WCI  15          
EAGLE          LGT SNOW  18  16  92 SW5       29.76S FOG     WCI  11  
RIFLE          MOCLDY    18   7  62 NW7       29.82S WCI   9          
DELTA          CLOUDY    26  23  89 CALM      29.81R                  
NUCLA          CLOUDY    21  19  93 CALM      29.82S                  
$$

COZ017>023-064>068-191500-
...SOUTHWEST COLORADO...
  
CITY           SKY/WX    TMP DP  RH WIND       PRES   REMARKS
DURANGO        LGT SNOW  19  19 100 SE3       29.74S VSB 3/4          
CORTEZ         LGT SNOW  20  16  84 NE3       29.78S FOG              
PAGOSA SPRINGS LGT SNOW  18  18  99 CALM      29.73S                  
TELLURIDE      LGT SNOW  12  10  92 CALM      29.68S                  
WOLF CREEK PAS CLOUDY     1   0  92 S9        29.64S WCI -14          
$$

COZ009-010-012-014-032>034-037-058>063-191500-
...CENTRAL COLORADO...
  
CITY           SKY/WX    TMP DP  RH WIND       PRES   REMARKS
ASPEN          LGT SNOW  16  12  84 NW3       29.67S VSB 1            
BUENA VISTA    LGT SNOW  -1  -5  82 CALM      29.74F                  
COPPER MTN     LGT SNOW   5   0  78 MISG      29.56F                  
BERTHOUD PASS    N/A      0 -11  60 SW6       29.55F WCI -12          
DAKOTA HILL    FAIR       5  -4  66 SW6       29.59S WCI  -6          
COTTONWOOD PAS LGT SNOW   9   3  78 CALM      29.65S                  
GUNNISON       LGT SNOW  14  12  92 CALM      29.70S VSB 1            
GRANBY         CLOUDY     7   3  85 CALM      29.70S FOG              
KREMMLING      LGT SNOW  12  10  92 CALM      29.73S                  
LEADVILLE      FAIR      -2  -6  83 S3        29.62S                  
MONARCH PASS   CLOUDY     3   0  85 MISG      29.68S                  
SALIDA         CLOUDY     4   0  84 CALM      29.85S                  
SUNLIGHT       LGT SNOW   3   0  85 SW7       29.64F WCI  -9          
WILKERSON PASS MOCLDY     5   0  78 SW8       29.62S WCI  -8          
$$

COZ069>075-191500-
...SAN LUIS VALLEY/SANGRE DE CRISTO MOUNTAINS...
  
CITY           SKY/WX    TMP DP  RH WIND       PRES   REMARKS
ALAMOSA        CLOUDY    17  14  88 S10       29.72S WCI   5          
DEL NORTE      CLOUDY     8   5  87 W7        29.70S WCI  -4          
LA VETA PASS   NOT AVBL                                               
SAGUACHE       LGT SNOW  18  16  93 CALM      29.72S VSB 1            
$$

COZ035-036-038>040-191500-
...NORTHERN COLORADO FRONT RANGE...
  
CITY           SKY/WX    TMP DP  RH WIND       PRES   REMARKS
DENVER INTL AP CLOUDY    14   7  73 S12       29.85F WCI   0          
AURORA         MOCLDY    13   7  76 S10       29.84F WCI   0          
FRONT RANGE AP MOCLDY    16   9  73 S8        29.86  WCI   5          
ERIE MUNI ARPT FLURRIES  13   9  83 NE7       29.95S WCI   3          
BOULDER MUN AP FLURRIES  14  10  85 NE8       29.87F WCI   3          
CENTENNIAL     CLOUDY    11   5  77 S9        29.83S WCI  -2          
BROOMFIELD     LGT SNOW  12  10  92 N9        29.86F WCI   0          
FORT COLLINS   FLURRIES  12   8  84 N9        29.91S WCI   0          
LONGMONT       LGT SNOW  16  10  76 NE7       29.92S WCI   6          
$$

COZ041-046-047-076>085-087-088-191500-
...PIKES PEAK/PALMER DIVIDE AND SOUTHERN FOOTHILLS...
  
CITY           SKY/WX    TMP DP  RH WIND       PRES   REMARKS
COLO. SPRINGS  LGT SNOW   8   6  92 SE10      29.85F VSB 1   WCI  -6  
A. F. ACADEMY  LGT SNOW   7   3  84 S8        29.81F WCI  -5          
SCHRIEVER AFB  NOT AVBL                                               
CHEYENNE MTN   LGT SNOW   5   2  90 CALM      29.74F                  
ELLICOTT       NOT AVBL                                               
FALCON         LGT SNOW   6   2  84 S8        29.82S WCI  -7          
FORT CARSON    LGT SNOW   9   5  86 SE7       29.86F FOG     WCI  -2  
LIMON          LGT SNOW   8   7  95 S20G28    29.91S FOG     WCI -11  
MONUMENT HILL  LGT SNOW   5   1  85 S15G21    29.78S WCI -13          
CANON CITY     NOT AVBL                                               
WALSENBURG     NOT AVBL                                               
TRINIDAD       FAIR       5   1  83 SE3       29.87S                  
$$

COZ042>045-048>051-090-091-191500-
...NORTHEAST COLORADO...
  
CITY           SKY/WX    TMP DP  RH WIND       PRES   REMARKS
GREELEY ARPT   FLURRIES  17  10  74 SE8       29.94  WCI   7          
AKRON          LGT SNOW  12   9  87 SE18      29.97F FOG     WCI  -6  
BURLINGTON     LGT SNOW  12   9  87 SE17      30.05F FOG     WCI  -5  
WRAY           LGT SNOW  16  14  93 SE14      30.10F WCI   1          
YUMA           LGT SNOW  12   9  85 SE14      30.05S WCI  -3          
STERLING       LGT SNOW  16  12  86 SE10G16   30.02F WCI   3          
HOLYOKE        LGT SNOW  18  12  79 SE15      30.10F VSB 3/4 WCI   3  
FORT MORGAN    FLURRIES  14  10  85 SE8       29.97F WCI   3          
$$

COZ086-089-092>099-191500-
...SOUTHEAST COLORADO...
  
CITY           SKY/WX    TMP DP  RH WIND       PRES   REMARKS
PUEBLO         LGT SNOW  12   9  87 E12       29.95S FOG     WCI  -2  
LA JUNTA       CLOUDY    18  11  74 SE12      30.00S WCI   5          
LAMAR          LGT SNOW  16  11  80 MISG      30.06S                  
SPRINGFIELD      N/A     11  10  96 SE21      30.01F WCI  -8          
$$